Flag for U.S.A. Weather past 2 weeks in Omaha, Nebraska, U.S.A.

Now
33 °F

Passing clouds.


Feels Like: 28 °F
Forecast: 26 / 43 °F
Wind: 6 mph from Northwest

Location: Millard Airport

Current Time: Mar 27, 2015 at 12:16:41 AM

Latest Report: Mar 26, 2015 at 11:55 PM


Visibility: 10 mi

Pressure: 30.21 "Hg

Humidity: 90%

Dew point: 30 °F

Location of OmahaLocation

Historic Weather in Omaha — Graph

°F

Omaha temperature yesterday

Maximum temperature yesterday: 49 °F (at 3:15 PM)
Minimum temperature yesterday: 27 °F (at 7:15 AM)
Average temperature yesterday: 36 °F

Past Weeks' High & Low Weather Summary

 TemperatureHumidityPressure
High88 °F (Mar 16, 5:15 PM)97% (Mar 25, 3:55 AM)30.52 "Hg (Mar 25, 3:55 AM)
Low27 °F (Mar 26, 7:15 AM)11% (Mar 16, 3:15 PM)29.77 "Hg (Mar 16, 3:55 PM)
Average48 °F55%30.12 "Hg
* Reported Mar 11 11:15 PM — Mar 26 11:15 PM, Omaha, Weather by CustomWeather, © 2015

Note: Actual official high and low records may vary slightly from our data, if they occured in-between our weather recording intervals... More about our weather records

Advertising

Omaha weather history for previous 24 hours

 ConditionsComfort  
Time TempWeatherWind HumidityBarometerVisibility
11:15 PM
Thu, Mar 26
34 °FClear.3 mph88%30.21 "Hg10 mi
10:55 PM35 °FClear.3 mph88%30.21 "Hg10 mi
10:15 PM35 °FPassing clouds.3 mph88%30.20 "Hg10 mi
9:55 PM35 °FPassing clouds.5 mph87%30.20 "Hg10 mi
9:35 PM36 °FPassing clouds.5 mph87%30.19 "Hg10 mi
9:15 PM36 °FOvercast.5 mph87%30.18 "Hg10 mi
8:55 PM36 °FPartly cloudy.3 mph87%30.18 "Hg10 mi
8:35 PM36 °FScattered clouds.3 mph87%30.18 "Hg10 mi
8:15 PM36 °FMore clouds than sun.6 mph86%30.17 "Hg10 mi
7:55 PM36 °FCloudy.6 mph84%30.16 "Hg10 mi
7:15 PM36 °FLight rain. Cloudy.5 mph87%30.16 "Hg10 mi
6:55 PM36 °FMore clouds than sun.No wind88%30.15 "Hg10 mi
6:15 PM36 °FLight rain. Mostly cloudy.8 mph87%30.16 "Hg5 mi
5:55 PM38 °FLight rain. Mostly cloudy.6 mph82%30.15 "Hg10 mi
5:35 PM39 °FLight rain. More clouds than sun.9 mph75%30.14 "Hg10 mi
5:15 PM41 °FRain. Cloudy.8 mph71%30.13 "Hg10 mi
4:55 PM44 °FMore clouds than sun.7 mph50%30.11 "Hg10 mi
4:15 PM47 °FMostly cloudy.7 mph39%30.09 "Hg10 mi
3:55 PM48 °FMore clouds than sun.8 mph38%30.09 "Hg10 mi
3:15 PM49 °FScattered clouds.7 mph41%30.11 "Hg10 mi
2:55 PM47 °FSunny.No wind43%30.12 "Hg10 mi
2:35 PM47 °FSunny.7 mph43%30.13 "Hg10 mi
2:15 PM47 °FSunny.9 mph43%30.14 "Hg10 mi
1:55 PM46 °FSunny.3 mph43%30.15 "Hg10 mi
1:35 PM46 °FSunny.3 mph43%30.16 "Hg10 mi
1:15 PM45 °FSunny.6 mph44%30.17 "Hg10 mi
12:55 PM45 °FSunny.8 mph44%30.18 "Hg10 mi
12:35 PM44 °FSunny.9 mph44%30.18 "Hg10 mi
12:15 PM43 °FSunny.10 mph45%30.20 "Hg10 mi
11:55 AM43 °FSunny.7 mph44%30.21 "Hg10 mi
11:35 AM42 °FSunny.10 mph46%30.22 "Hg10 mi
11:15 AM42 °FSunny.6 mph44%30.22 "Hg10 mi
10:55 AM41 °FSunny.7 mph49%30.23 "Hg10 mi
10:35 AM39 °FSunny.6 mph55%30.23 "Hg10 mi
10:15 AM37 °FSunny.6 mph59%30.23 "Hg10 mi
9:55 AM37 °FSunny.5 mph64%30.24 "Hg10 mi
9:35 AM35 °FSunny.3 mph69%30.24 "Hg10 mi
9:15 AM34 °FSunny.6 mph72%30.24 "Hg10 mi
8:55 AM32 °FSunny.5 mph75%30.24 "Hg10 mi
8:35 AM32 °FSunny.3 mph78%30.24 "Hg10 mi
8:15 AM30 °FClear.No wind79%30.23 "Hg10 mi
7:55 AM28 °FClear.No wind84%30.23 "Hg10 mi
7:15 AM27 °FClear.No wind85%30.22 "Hg10 mi
6:55 AM28 °FClear.No wind82%30.22 "Hg10 mi
6:35 AM28 °FClear.3 mph85%30.21 "Hg10 mi
6:15 AM28 °FClear.No wind81%30.21 "Hg10 mi
5:55 AM29 °FClear.No wind81%30.21 "Hg10 mi
5:35 AM29 °FClear.No wind79%30.21 "Hg10 mi
5:15 AM29 °FClear.5 mph78%30.20 "Hg10 mi
4:55 AM30 °FClear.5 mph77%30.20 "Hg10 mi
4:35 AM29 °FClear.5 mph78%30.19 "Hg10 mi
4:15 AM29 °FClear.5 mph79%30.19 "Hg10 mi
3:55 AM30 °FClear.5 mph77%30.19 "Hg10 mi
3:35 AM31 °FClear.5 mph77%30.19 "Hg10 mi
3:15 AM31 °FClear.5 mph79%30.19 "Hg10 mi
2:55 AM31 °FClear.6 mph77%30.20 "Hg10 mi
2:35 AM32 °FClear.5 mph76%30.20 "Hg10 mi
2:15 AM32 °FClear.6 mph76%30.21 "Hg10 mi
1:55 AM33 °FClear.5 mph75%30.21 "Hg10 mi
1:35 AM34 °FClear.6 mph74%30.21 "Hg10 mi
1:15 AM33 °FClear.5 mph78%30.21 "Hg10 mi
12:55 AM33 °FClear.3 mph82%30.22 "Hg10 mi
12:35 AM33 °FClear.3 mph84%30.22 "Hg10 mi
12:15 AM32 °FClear.No wind82%30.22 "Hg10 mi
Weather by CustomWeather, © 2015

See weather overviewHow to use our weather pages